Regional Weather Roundup
Issued by NWS

Home | Current Version | Previous Version | Text Only | Print | Product List | Glossary On
Versions: 1 2 3 4 5 6 7 8 9 10 11 12 13 14 15 16 17 18 19 20 21 22 23 24 25 26 27 28 29 30 31 32 33 34 35 36 37 38 39 40 41 42 43 44 45 46 47 48 49 50
000
ASUS43 KMPX 300801
RWRMN
WEATHER ROUNDUP FOR MINNESOTA
NATIONAL WEATHER SERVICE TWIN CITIES/CHANHASSEN MN
300 AM CDT TUE AUG 30 2016


NOTE: "FAIR" INDICATES FEW OR NO CLOUDS BELOW 12,000 FEET WITH NO
SIGNIFICANT WEATHER AND/OR OBSTRUCTIONS TO VISIBILITY. N/A MEANS
CURRENT SKY AND/OR WEATHER CONDITIONS ARE NOT AVAILABLE.

MNZ060>063-068>070-300900-
   Twin Cities Metro

CITY           SKY/WX    TMP DP  RH WIND       PRES   REMARKS
TWIN CITIES    LGT RAIN  68  64  87 SE15      30.18F
ST PAUL        LGT RAIN  67  64  90 S13       30.18F
CRYSTAL        LGT RAIN  69  63  81 SE14G20   30.12F
BLAINE         CLOUDY    70  66  88 S9        30.14F
LAKEVILLE      RAIN      66  66 100 CALM      30.22F
EDEN PRAIRIE   RAIN      69  66  90 SE17      30.17F
LAKEVILLE      RAIN      66  66 100 CALM      30.22F
SOUTH ST PAUL  LGT RAIN  67  65  94 S6        30.20F
LAKE ELMO      LGT RAIN  66  64  94 S14       30.18F
$$
MNZ001>005-007-008-013>017-022>024-027-028-300900-
   Northwest Minnesota

CITY           SKY/WX    TMP DP  RH WIND       PRES   REMARKS
BEMIDJI        CLEAR     48  47  97 W3        30.23R
HALLOCK        CLEAR     46  45  93 CALM      30.21S
ROSEAU         CLEAR     48  45  87 CALM      30.22R
WARROAD        PTCLDY    48  45  87 CALM      30.22S
THIEF RVR FALL CLEAR     52  50  93 CALM      30.24R
CROOKSTON      CLEAR     54  52  94 CALM      30.23S
FOSSTON        CLEAR     48  46  93 CALM      30.24R
DETROIT LAKES  CLEAR     59  57  94 CALM      30.24S
MOORHEAD       CLEAR     54  52  94 CALM      30.23S
PARK RAPIDS    CLEAR     56  53  90 CALM      30.23R
MAHNOMEN       FAIR      54  53  97 CALM      30.23S
$$
MNZ006-009>011-018-025>026-300900-
   North Central Minnesota

CITY           SKY/WX    TMP DP  RH WIND       PRES   REMARKS
BAUDETTE       CLEAR     52  50  93 W3        30.20R
FLAG ISLAND    CLEAR     57  54  88 CALM      30.19R
INTL FALLS     CLEAR     52  50  93 CALM      30.19R
WASKISH        CLEAR     57  54  88 CALM      30.21S
BIG FORK       CLEAR     55  54  94 CALM      30.21R
LONGVILLE      CLOUDY    57  57 100 NW3       30.21R
GRAND RAPIDS   PTCLDY    60  57  89 CALM      30.21R
CRANE LAKE     CLEAR     54  52  94 NW1       30.20R
COOK           CLEAR     57  57 100 CALM      30.19R FOG
WALKER         FAIR      54  54  99 W5        30.23R
$$
MNZ012-019>021-037-300900-
   Northeast Minnesota

CITY           SKY/WX    TMP DP  RH WIND       PRES   REMARKS
DULUTH         CLOUDY    65  64  97 W9        30.15F
ELY            CLEAR     61  59  94 NW3       30.16S
HIBBING        CLEAR     59  58  96 N6        30.17S
EVELETH        CLEAR     64  61  90 N5        30.18R
DULUTH HARBOR  CLOUDY    68  64  88 SW9       30.13F
TWO HARBORS    CLOUDY    68  63  83 CALM      30.12S
SILVER BAY     CLOUDY    66  64  94 CALM      30.11S
GRAND MARAIS     N/A     70  64  81 N8G22     30.06F
G MARAIS ARPRT PTCLDY    63  57  82 NW3       30.15R
$$
MNZ029>031-032-039>041-046>048-054>057-064-300900-
   West Central Minnesota

CITY           SKY/WX    TMP DP  RH WIND       PRES   REMARKS
FERGUS FALLS   CLEAR     63  61  94 NE3       30.23S
WHEATON        CLEAR     61  57  88 NW2       30.23R
ALEXANDRIA     CLEAR     66  62  87 NE6       30.22R
ELBOW LAKE     FAIR      64  62  95 CALM      30.21S
GLENWOOD       PTCLDY    64  63  94 NE5       30.21R
APPLETON       MOCLDY    68  63  83 N5        30.19R
BENSON         CLOUDY    66  63  88 NE3       30.19R
ORTONVILLE     CLOUDY    66  63  88 CALM      30.20S
MADISON        CLOUDY    70  66  88 N3        30.20R
WILLMAR        FAIR      70  66  88 CALM      30.19S
$$
MNZ033>034-036-042>043-049>051-058-059-300900-
   Central Minnesota

CITY           SKY/WX    TMP DP  RH WIND       PRES   REMARKS
ST CLOUD       CLOUDY    65  65 100 N5        30.18F
SAUK CENTRE    FAIR      65  65  97 CALM      30.20R
PAYNESVILLE    CLOUDY    64  64 100 NE8       30.20R
AITKIN         HAZE      63  57  82 CALM      30.18S VSB 1
PINE RIVER     CLEAR     63  59  88 NW7       30.23R
BRAINERD       CLOUDY    64  62  93 N3        30.20R
STAPLES        CLEAR     59  57  94 N6        30.20S
LONG PRAIRIE   FAIR      63  63 100 CALM      30.21R
LITTLE FALLS   CLOUDY    63  61  94 CALM      30.19R
LITCHFIELD     CLOUDY    68  66  94 CALM      30.18R
BUFFALO        CLOUDY    67  64  90 N3        30.18S
MAPLE LAKE     CLOUDY    67  66  96 NE3       30.18S
HUTCHINSON     MOCLDY    67  66  94 S9        30.15F
$$
MNZ037-044-045-052-053-300900-
   East Central Minnesota

CITY           SKY/WX    TMP DP  RH WIND       PRES   REMARKS
PRINCETON      CLOUDY    66  64  94 CALM      30.18S
MORA           CLOUDY    63  63 100 CALM      30.19F
CAMBRIDGE      CLOUDY    66  63  88 CALM      30.15F
RUSH CITY      CLOUDY    65  64  96 CALM      30.17F
MOOSE LAKE     CLOUDY    64  63  94 NW6       30.14F
HINCKLEY       CLOUDY    63  63 100 CALM      30.17S
CLOQUET        CLOUDY    64  63  94 W6        30.16F
MCGREGOR       CLOUDY    64  63  94 NW5       30.19S
$$
MNZ071>073-080-081-089-090-097-098-300900-
   Southwest Minnesota

CITY           SKY/WX    TMP DP  RH WIND       PRES   REMARKS
MONTEVIDEO     CLOUDY    70  68  94 NE3       30.20R
GRANITE FALLS  CLOUDY    73  69  87 NE8       30.20R
CANBY          CLOUDY    71  67  88 NW5       30.22R
MARSHALL       CLOUDY    71  69  93 NW6       30.19F
REDWOOD FALLS  TSTM      68  65  90 E9        30.18R FOG
OLIVIA         TSTM      68  66  94 SE12      30.19R
PIPESTONE        N/A     72  66  83 N2        30.21S
WINDOM         CLOUDY    70  68  94 CALM      30.20S
WORTHINGTON    CLOUDY    69  67  93 W3        30.22R
JACKSON        CLOUDY    70  64  83 W6        30.20F
TRACY          CLOUDY    71  70  95 NW7       30.20S
SLAYTON        MOCLDY    70  68  94 W6        30.22S
$$
MNZ065>067-074>077-082>085-091>093-300900-
   South Central Minnesota

CITY           SKY/WX    TMP DP  RH WIND       PRES   REMARKS
NEW ULM        LGT RAIN  66  66 100 E10       30.22S
ST JAMES       LGT RAIN  70  68  94 NE16G29   30.21R
FAIRMONT       CLOUDY    67  66  97 S3        30.19S FOG
GLENCOE        LGT RAIN  66  67 100 S9        30.15F
FARIBAULT      LGT RAIN  68  66  94 N8G17     30.22F
WASECA         RAIN      68  63  83 NE14      30.23S
ALBERT LEA     CLOUDY    70  66  88 CALM      30.20S
$$
MNZ078>079-086>088-094>096-300900-
   Southeast Minnesota

CITY           SKY/WX    TMP DP  RH WIND       PRES   REMARKS
ROCHESTER      CLOUDY    69  69 100 N6        30.22R
RED WING       LGT RAIN  70  64  83 CALM      30.21F
STANTON        CLOUDY    68  64  88 NE7       30.23R
DODGE CENTER   CLOUDY    70  66  88 N7        30.22R
WINONA         CLOUDY    70  68  94 CALM      30.19S
AUSTIN         FOG       66  64  94 CALM      30.20S VSB 3/4
PRESTON        FOG       69  67  95 CALM      30.21S VSB 1/4
$$
ABBREVIATIONS USED IN REMARKS
   TC - TEMPERATURES IN CELSIUS
  WCI - WIND CHILL INDEX
   HX - HEAT INDEX
  VSB - VISIBILITY
$$



USA.gov is the U.S. government's official web portal to all federal, state and local government web resources and services.